When you browse on this site, cookies collect data to enhance your experience and personalize the content and advertising you see.
Visit our Privacy Policy to learn more. By continuing to use the site, you agree to this use of cookies and data.
EN

Hourly Weather Novyy Yavash

Today, 6 August, Thursday

Time Temperature Precipitation Wind Pressure Humidity
00:00 +19°C° 0 mm 2 mps 749 mmHg 95%
01:00 +19°C° 0 mm 2 mps 749 mmHg 95%
02:00 +19°C° 0 mm 2 mps 749 mmHg 95%
03:00 +18°C° 0 mm 2 mps 749 mmHg 95%
04:00 +19°C° 0 mm 2 mps 749 mmHg 94%
05:00 +19°C° 0 mm 3 mps 749 mmHg 93%
06:00 +20°C° 0 mm 3 mps 749 mmHg 93%
07:00 +21°C° 0 mm 3 mps 749 mmHg 89%
08:00 +22°C° 0 mm 3 mps 749 mmHg 86%
09:00 +25°C° 0 mm 3 mps 749 mmHg 82%
10:00 +26°C° 0 mm 3 mps 749 mmHg 76%
11:00 +27°C° 0 mm 3 mps 749 mmHg 71%
12:00 +28°C° 0 mm 3 mps 749 mmHg 65%
13:00 +29°C° 0 mm 2 mps 749 mmHg 63%
14:00 +29°C° 0 mm 2 mps 749 mmHg 61%
15:00 +29°C° 0 mm 2 mps 749 mmHg 58%
16:00 +29°C° 0.1 mm 1 mps 748 mmHg 62%
17:00 +28°C° 0.1 mm 1 mps 748 mmHg 66%
18:00 +25°C° 0.1 mm 0 mps 748 mmHg 70%
19:00 +24°C° 0 mm 0 mps 748 mmHg 74%
20:00 +22°C° 0 mm 0 mps 748 mmHg 78%
21:00 +20°C° 0 mm 0 mps 748 mmHg 82%
22:00 +20°C° 0 mm 0 mps 748 mmHg 83%
23:00 +20°C° 0 mm 0 mps 747 mmHg 85%

Tomorrow, 7 August, Friday

Time Temperature Precipitation Wind Pressure Humidity
00:00 +19°C° 0 mm 0 mps 747 mmHg 86%
01:00 +19°C° 0.1 mm 0 mps 747 mmHg 87%
02:00 +19°C° 0.1 mm 0 mps 747 mmHg 88%
03:00 +20°C° 0.1 mm 1 mps 747 mmHg 89%
04:00 +21°C° 0 mm 1 mps 747 mmHg 89%
05:00 +20°C° 0 mm 2 mps 747 mmHg 90%
06:00 +20°C° 0 mm 2 mps 747 mmHg 90%
07:00 +21°C° 0.4 mm 3 mps 747 mmHg 86%
08:00 +22°C° 0.4 mm 4 mps 747 mmHg 82%
09:00 +23°C° 0.4 mm 4 mps 747 mmHg 78%
10:00 +25°C° 0.1 mm 5 mps 747 mmHg 74%
11:00 +25°C° 0.1 mm 5 mps 747 mmHg 69%
12:00 +26°C° 0.1 mm 5 mps 747 mmHg 65%
13:00 +26°C° 0 mm 5 mps 747 mmHg 67%
14:00 +24°C° 0 mm 6 mps 747 mmHg 69%
15:00 +24°C° 0 mm 6 mps 747 mmHg 72%
16:00 +23°C° 0 mm 6 mps 747 mmHg 73%
17:00 +22°C° 0 mm 5 mps 747 mmHg 74%
18:00 +21°C° 0 mm 5 mps 747 mmHg 75%
19:00 +20°C° 0 mm 5 mps 747 mmHg 74%
20:00 +19°C° 0 mm 5 mps 747 mmHg 72%
21:00 +17°C° 0 mm 6 mps 747 mmHg 71%
22:00 +16°C° 0 mm 5 mps 747 mmHg 71%
23:00 +15°C° 0 mm 5 mps 747 mmHg 70%

Day after tomorrow, 8 August, Saturday

Time Temperature Precipitation Wind Pressure Humidity
00:00 +14°C° 0 mm 5 mps 747 mmHg 69%
01:00 +14°C° 0 mm 5 mps 747 mmHg 72%
02:00 +13°C° 0 mm 5 mps 747 mmHg 75%
03:00 +12°C° 0 mm 4 mps 747 mmHg 78%
04:00 +13°C° 0 mm 5 mps 747 mmHg 78%
05:00 +13°C° 0 mm 5 mps 747 mmHg 79%
06:00 +13°C° 0 mm 5 mps 747 mmHg 80%
07:00 +15°C° 0 mm 6 mps 747 mmHg 77%
08:00 +16°C° 0 mm 6 mps 747 mmHg 73%
09:00 +17°C° 0 mm 6 mps 747 mmHg 70%
10:00 +19°C° 0 mm 6 mps 746 mmHg 69%
11:00 +20°C° 0 mm 6 mps 746 mmHg 67%
12:00 +21°C° 0 mm 6 mps 746 mmHg 65%
13:00 +21°C° 0 mm 6 mps 746 mmHg 66%
14:00 +20°C° 0 mm 6 mps 745 mmHg 67%
15:00 +20°C° 0 mm 6 mps 745 mmHg 67%
16:00 +20°C° 0 mm 6 mps 745 mmHg 70%
17:00 +19°C° 0 mm 5 mps 745 mmHg 73%
18:00 +17°C° 0 mm 5 mps 745 mmHg 76%
19:00 +17°C° 0 mm 4 mps 744 mmHg 80%
20:00 +15°C° 0 mm 4 mps 744 mmHg 83%
21:00 +13°C° 0 mm 3 mps 744 mmHg 87%
22:00 +13°C° 0 mm 4 mps 744 mmHg 89%
23:00 +13°C° 0 mm 4 mps 744 mmHg 91%

9 August, Sunday

Time Temperature Precipitation Wind Pressure Humidity
00:00 +12°C° 0 mm 4 mps 743 mmHg 92%
01:00 +12°C° 0 mm 4 mps 743 mmHg 93%
02:00 +11°C° 0 mm 4 mps 743 mmHg 94%
03:00 +11°C° 0 mm 4 mps 743 mmHg 94%
04:00 +10°C° 0 mm 5 mps 743 mmHg 90%
05:00 +12°C° 0 mm 5 mps 743 mmHg 86%
06:00 +11°C° 0 mm 6 mps 742 mmHg 82%
07:00 +13°C° 0 mm 6 mps 742 mmHg 77%
08:00 +15°C° 0 mm 7 mps 742 mmHg 73%
09:00 +16°C° 0 mm 7 mps 742 mmHg 68%
10:00 +17°C° 0 mm 7 mps 742 mmHg 66%
11:00 +18°C° 0 mm 7 mps 742 mmHg 63%
12:00 +18°C° 0 mm 7 mps 742 mmHg 61%
13:00 +18°C° 0 mm 7 mps 742 mmHg 61%
14:00 +18°C° 0 mm 7 mps 742 mmHg 62%
15:00 +18°C° 0 mm 7 mps 742 mmHg 63%
16:00 +19°C° 0 mm 6 mps 742 mmHg 66%
17:00 +17°C° 0 mm 6 mps 742 mmHg 70%
18:00 +17°C° 0 mm 5 mps 742 mmHg 73%
19:00 +16°C° 0 mm 5 mps 742 mmHg 74%
20:00 +15°C° 0 mm 5 mps 742 mmHg 75%
21:00 +14°C° 0 mm 5 mps 742 mmHg 77%
22:00 +13°C° 0 mm 5 mps 742 mmHg 78%
23:00 +12°C° 0 mm 5 mps 742 mmHg 79%

10 August, Monday

Time Temperature Precipitation Wind Pressure Humidity
00:00 +12°C° 0 mm 5 mps 742 mmHg 80%
01:00 +10°C° 0 mm 5 mps 742 mmHg 81%
02:00 +10°C° 0 mm 5 mps 742 mmHg 83%
03:00 +9°C° 0 mm 5 mps 742 mmHg 85%
04:00 +9°C° 0 mm 5 mps 743 mmHg 83%
05:00 +9°C° 0 mm 6 mps 743 mmHg 81%
06:00 +9°C° 0 mm 6 mps 743 mmHg 80%
07:00 +10°C° 0 mm 6 mps 743 mmHg 75%
08:00 +13°C° 0 mm 6 mps 743 mmHg 70%
09:00 +14°C° 0 mm 7 mps 743 mmHg 65%
10:00 +15°C° 0 mm 7 mps 743 mmHg 63%
11:00 +16°C° 0 mm 7 mps 743 mmHg 60%
12:00 +16°C° 0 mm 7 mps 743 mmHg 58%
13:00 +17°C° 0 mm 7 mps 743 mmHg 58%
14:00 +17°C° 0 mm 7 mps 743 mmHg 58%
15:00 +17°C° 0 mm 7 mps 743 mmHg 59%
16:00 +16°C° 0 mm 6 mps 743 mmHg 62%
17:00 +15°C° 0 mm 5 mps 743 mmHg 65%
18:00 +15°C° 0 mm 5 mps 743 mmHg 69%
19:00 +13°C° 0 mm 4 mps 743 mmHg 72%
20:00 +12°C° 0 mm 4 mps 744 mmHg 75%
21:00 +11°C° 0 mm 4 mps 744 mmHg 78%
22:00 +11°C° 0 mm 4 mps 744 mmHg 79%
23:00 +10°C° 0 mm 4 mps 744 mmHg 80%

11 August, Tuesday

Time Temperature Precipitation Wind Pressure Humidity
00:00 +10°C° 0 mm 3 mps 744 mmHg 81%
01:00 +9°C° 0 mm 3 mps 744 mmHg 83%
02:00 +9°C° 0 mm 3 mps 744 mmHg 84%
03:00 +8°C° 0 mm 3 mps 744 mmHg 85%
04:00 +9°C° 0 mm 3 mps 744 mmHg 83%
05:00 +8°C° 0 mm 4 mps 744 mmHg 81%
06:00 +10°C° 0 mm 4 mps 745 mmHg 79%
07:00 +12°C° 0 mm 4 mps 745 mmHg 73%
08:00 +14°C° 0 mm 4 mps 745 mmHg 68%
09:00 +15°C° 0 mm 4 mps 744 mmHg 62%
10:00 +17°C° 0 mm 4 mps 744 mmHg 59%
11:00 +18°C° 0 mm 4 mps 744 mmHg 57%
12:00 +19°C° 0 mm 4 mps 744 mmHg 54%
13:00 +19°C° 0 mm 4 mps 744 mmHg 54%
14:00 +19°C° 0 mm 4 mps 744 mmHg 54%
15:00 +20°C° 0 mm 3 mps 744 mmHg 54%
16:00 +19°C° 0 mm 3 mps 744 mmHg 59%
17:00 +18°C° 0 mm 3 mps 744 mmHg 65%
18:00 +17°C° 0 mm 2 mps 744 mmHg 70%
19:00 +16°C° 0 mm 2 mps 744 mmHg 73%
20:00 +14°C° 0 mm 2 mps 744 mmHg 76%
21:00 +13°C° 0 mm 2 mps 744 mmHg 79%
22:00 +12°C° 0 mm 2 mps 744 mmHg 80%
23:00 +12°C° 0 mm 2 mps 744 mmHg 82%
Show more